Weather History for Prague, Czech Republic

Change the Weather History Date:

Monday, February 27, 2012

  Actual Average Record
Temperature  
Mean Temperature 32 °F -  
Max Temperature 41 °F 45 °F 53 °F (1999)
Min Temperature 24 °F 29 °F 14 °F (2006)
Degree Days  
Heating Degree Days 32    
Moisture  
Dew Point 24 °F    
Average Humidity 69    
Maximum Humidity 86    
Minimum Humidity 35    
Precipitation  
Precipitation 0.00 in 0.04 in - ()
Sea Level Pressure  
Sea Level Pressure 30.21 in    
Wind  
Wind Speed 8 mph ()    
Max Wind Speed 14 mph    
Max Gust Speed -    
Visibility 6.7 miles    
Events      
Averages and records for this station are not official NWS values.
T = Trace of Precipitation, MM = Missing Value Source: Averaged Metar Reports

Daily Weather History Graph

Daily Weather History Graph

Search for Another Location

Airport:

Trip Planner

Search our weather history database for the weather conditions in past years. The results will help you decide how hot, cold, wet, or windy it might be!

Date:

Astronomy

Feb. 27, 2012 Rise Set
Actual Time 6:51 AM CET 5:40 PM CET
Civil Twilight 6:19 AM CET 6:13 PM CET
Nautical Twilight 5:41 AM CET 6:50 PM CET
Astronomical Twilight 5:04 AM CET 7:28 PM CET
Moon 8:33 AM CET (2/27) 11:59 PM CET (2/27)
Length of Visible Light 11h 53m
Length of Day
10h 48m
Waxing Crescent, 26% of the Moon is Illuminated
Feb 27
Waxing Crescent
Mar 1
First Quarter
Mar 8
Full
Mar 15
Last Quarter
Mar 22
New

Hourly Weather History & Observations

Time (CET) Temp. Windchill Dew Point Humidity Pressure Visibility Wind Dir Wind Speed Gust Speed Precip Events Conditions
12:00 AM 30.2 °F 23.4 °F 23.0 °F 75% 30.21 in - West 6.9 mph - N/A   Clear
12:30 AM 28.4 °F 22.2 °F 23.0 °F 80% 30.21 in - West 5.8 mph - N/A   Clear
1:00 AM 28 °F - 22 °F 69% 30.30 in 19 mi West 6.7 mph - -   Clear
1:00 AM 28.4 °F 19.7 °F 23.0 °F 80% 30.21 in - WSW 9.2 mph - N/A   Clear
1:30 AM 28.4 °F 20.4 °F 21.2 °F 74% 30.21 in - West 8.1 mph - N/A   Clear
2:00 AM 26.6 °F 19.1 °F 21.2 °F 80% 30.21 in - West 6.9 mph - N/A   Clear
2:30 AM 26.6 °F 19.1 °F 21.2 °F 80% 30.21 in - West 6.9 mph - N/A   Clear
3:00 AM 26.6 °F 19.1 °F 21.2 °F 80% 30.21 in - West 6.9 mph - N/A   Clear
3:30 AM 26.6 °F 20.0 °F 21.2 °F 80% 30.21 in - West 5.8 mph - N/A   Clear
4:00 AM 26.6 °F 19.1 °F 21.2 °F 80% 30.24 in - West 6.9 mph - N/A   Clear
4:30 AM 26.6 °F 21.2 °F 21.2 °F 80% 30.24 in - West 4.6 mph - N/A   Clear
5:00 AM 26.6 °F 20.0 °F 21.2 °F 80% 30.24 in - West 5.8 mph - N/A   Clear
5:30 AM 26.6 °F 20.0 °F 21.2 °F 80% 30.24 in - West 5.8 mph - N/A   Clear
6:00 AM 24.8 °F 16.1 °F 21.2 °F 86% 30.24 in - West 8.1 mph - N/A   Clear
6:30 AM 24.8 °F 16.9 °F 21.2 °F 86% 30.21 in - West 6.9 mph - N/A   Clear
7:00 AM 25 °F - 20 °F 73% 30.32 in 44 mi West 6.7 mph - -   Scattered Clouds
7:00 AM 24.8 °F 19.1 °F 21.2 °F 86% 30.21 in - West 4.6 mph - N/A   Clear
7:30 AM 26.6 °F 18.2 °F 21.2 °F 80% 30.21 in - WSW 8.1 mph - N/A   Clear
8:00 AM 28.4 °F 21.2 °F 21.2 °F 74% 30.21 in - West 6.9 mph - N/A   Clear
8:30 AM 32.0 °F 23.6 °F 19.4 °F 60% 30.24 in - WNW 10.4 mph - N/A   Clear
9:00 AM 33.8 °F 25.8 °F 19.4 °F 56% 30.24 in - WNW 10.4 mph - N/A   Clear
9:30 AM 33.8 °F 25.8 °F 21.2 °F 60% 30.24 in - WNW 10.4 mph - N/A   Clear
10:00 AM 35.6 °F 28.0 °F 17.6 °F 48% 30.24 in - WNW 10.4 mph - N/A   Clear
10:30 AM 37.4 °F 29.8 °F 21.2 °F 52% 30.24 in - NW 11.5 mph - N/A   Clear
11:00 AM 37.4 °F 28.9 °F 19.4 °F 48% 30.27 in 6.2 mi NW 13.8 mph - N/A   Mostly Cloudy
11:30 AM 37.4 °F 29.8 °F 19.4 °F 48% 30.27 in 6.2 mi WNW 11.5 mph - N/A   Mostly Cloudy
12:00 PM 39.2 °F 32.5 °F 19.4 °F 45% 30.24 in 6.2 mi NW 10.4 mph - N/A   Scattered Clouds
12:30 PM 39.2 °F 32.5 °F 21.2 °F 49% 30.21 in 6.2 mi WNW 10.4 mph - N/A   Mostly Cloudy
1:00 PM 40 °F - 22 °F 35% 30.27 in 47 mi NW 11.2 mph - -   Mostly Cloudy
1:00 PM 39.2 °F 33.0 °F 21.2 °F 49% 30.21 in 6.2 mi WNW 9.2 mph - N/A   Mostly Cloudy
1:30 PM 37.4 °F 29.8 °F 21.2 °F 52% 30.21 in 6.2 mi WNW 11.5 mph - N/A   Scattered Clouds
2:00 PM 41.0 °F 34.7 °F 23.0 °F 49% 30.18 in 6.2 mi WNW 10.4 mph - N/A   Scattered Clouds
2:30 PM 41.0 °F 34.3 °F 23.0 °F 49% 30.18 in 6.2 mi West 11.5 mph - N/A   Scattered Clouds
3:00 PM 39.2 °F 32.5 °F 23.0 °F 52% 30.18 in 6.2 mi WNW 10.4 mph - N/A   Mostly Cloudy
3:30 PM 39.2 °F 33.6 °F 26.6 °F 61% 30.15 in 6.2 mi WNW 8.1 mph - N/A   Mostly Cloudy
4:00 PM 39.2 °F 31.2 °F 26.6 °F 61% 30.18 in 6.2 mi WNW 13.8 mph - N/A   Mostly Cloudy
4:30 PM 37.4 °F 30.3 °F 26.6 °F 65% 30.18 in 6.2 mi WNW 10.4 mph - N/A   Scattered Clouds
5:00 PM 37.4 °F 32.1 °F 28.4 °F 70% 30.18 in 6.2 mi West 6.9 mph - N/A   Scattered Clouds
5:30 PM 35.6 °F 30.7 °F 28.4 °F 75% 30.18 in 6.2 mi West 5.8 mph - N/A   Scattered Clouds
6:00 PM 35.6 °F 29.9 °F 28.4 °F 75% 30.18 in 6.2 mi WSW 6.9 mph - N/A   Partly Cloudy
6:30 PM 35.6 °F 29.2 °F 26.6 °F 70% 30.18 in 6.2 mi WSW 8.1 mph - N/A   Partly Cloudy
7:00 PM 35 °F - 28 °F 65% 30.24 in 25 mi SW 6.7 mph - -   Overcast
7:00 PM 33.8 °F 27.7 °F 28.4 °F 81% 30.18 in 6.2 mi SW 6.9 mph - N/A   Partly Cloudy
7:30 PM 33.8 °F 27.7 °F 28.4 °F 81% 30.18 in 6.2 mi SW 6.9 mph - N/A   Mostly Cloudy
8:00 PM 35.6 °F 28.6 °F 28.4 °F 75% 30.18 in 6.2 mi WSW 9.2 mph - N/A   Scattered Clouds
8:30 PM 35.6 °F 28.6 °F 28.4 °F 75% 30.18 in 6.2 mi WSW 9.2 mph - N/A   Partly Cloudy
9:00 PM 35.6 °F 28.0 °F 28.4 °F 75% 30.15 in - WSW 10.4 mph - N/A   Clear
9:30 PM 35.6 °F 28.0 °F 28.4 °F 75% 30.15 in - WSW 10.4 mph - N/A   Clear
10:00 PM 35.6 °F 27.5 °F 28.4 °F 75% 30.15 in 6.2 mi WSW 11.5 mph - N/A   Overcast
10:30 PM 35.6 °F 27.1 °F 28.4 °F 75% 30.15 in 6.2 mi WSW 12.7 mph - N/A   Overcast
11:00 PM 35.6 °F 27.1 °F 28.4 °F 75% 30.15 in 6.2 mi WSW 12.7 mph - N/A   Overcast
11:30 PM 35.6 °F 28.0 °F 30.2 °F 81% 30.15 in 6.2 mi WSW 10.4 mph - N/A   Overcast